Location: Loudonville
(42.7048°N, 73.7548°W)
Time: 05:22:31
(UTC+00:00)

Daily predictions for brighter satellites

Satellite Brightness Start Highest point End
(mag) Time Altitude Azimuth Time Altitude Azimuth Time Altitude Azimuth
SL-16 R/B 2.6 01:03:22 10° S 01:08:40 43° ESE 01:14:01 10° NE
Cosmos 2360 Rocket 3.5 01:06:27 10° SE 01:10:22 20° E 01:14:17 10° NE
Cosmos 2322 Rocket 2.8 01:06:22 10° S 01:11:28 35° ESE 01:16:37 10° NE
BREEZE-M DEB (TANK) 2.7 01:11:14 10° SSW 01:13:21 31° SE 01:16:11 10° ENE
Cosmos 1315 Rocket 3.6 01:09:37 10° N 01:13:31 39° ENE 01:17:22 10° SE
SL-24 DEB 4.4 01:10:30 10° S 01:15:13 86° W 01:20:01 10° N
Cosmos 676 Rocket 4.2 01:10:50 10° NNW 01:16:09 62° ENE 01:21:25 10° SSE
Cosmos 1954 Rocket 4.2 01:11:41 10° NNW 01:17:00 65° ENE 01:22:16 10° SSE
Cosmos 2227 4.3 01:11:35 10° NNW 01:17:13 72° ENE 01:22:49 10° SSE
Ariane Rocket 3.2 01:12:53 10° SSE 01:17:58 80° WSW 01:23:06 10° NNW
OBJECT-B 2.9 01:17:14 10° SSW 01:19:57 25° W 01:22:41 10° NW
Meteor 1-21 4.3 01:14:46 10° S 01:20:20 59° E 01:25:52 10° NNE
Aureole 2 Rocket 4.3 01:19:53 10° WNW 01:21:22 15° WSW 01:22:50 10° SW
Okean 1 Rocket 3.2 01:17:53 10° N 01:22:12 57° E 01:26:30 10° SSE
Cosmos 1934 Rocket 4.2 01:16:42 10° N 01:22:48 78° W 01:28:57 10° S
USA 238 DEB 3.8 01:17:33 10° SW 01:24:05 80° NW 01:30:58 10° NE
USA 238 3.8 01:17:40 10° SW 01:24:11 80° NW 01:31:04 10° NE
Resurs 1-3 4.0 01:19:57 10° S 01:24:19 65° WSW 01:28:42 10° NNW
Cosmos 1726 2.2 01:22:23 10° N 01:25:59 59° E 01:29:34 10° SSE
Cosmos 1980 Rocket 3.9 01:24:34 10° SW 01:29:47 38° WNW 01:35:00 10° N
Cosmos 220 Rocket 4.1 01:25:40 10° SSW 01:29:59 82° WNW 01:34:17 10° NNE
USA 81 4.5 01:24:56 10° N 01:30:00 46° E 01:35:03 10° SSE
Cosmos 1378 Rocket 3.7 01:26:02 10° S 01:30:22 81° W 01:34:46 10° N
BREEZE-M DEB (TANK) 2.5 01:28:48 10° S 01:30:38 20° SE 01:32:53 10° E
Cosmos 1758 3.7 01:28:14 10° N 01:32:04 46° ENE 01:35:36 12° SSE
Cosmos 1140 Rocket 4.4 01:27:05 10° NNW 01:32:07 48° WSW 01:37:07 10° S
Okean 2 3.4 01:28:59 10° S 01:33:04 87° W 01:37:11 10° N
CENTAUR R/B 2.9 01:29:22 10° SW 01:35:10 71° NW 01:42:10 10° NNE
Lacrosse 5 rocket 2.4 01:36:25 10° S 01:39:06 19° SE 01:41:44 10° ENE
Cosmos 1707 2.7 01:40:03 10° S 01:43:54 83° E 01:47:49 10° N
Cosmos 292 Rocket 3.8 01:39:23 10° SSW 01:44:13 85° ESE 01:49:05 10° NNE
Meteor 2-10 4.5 01:40:15 10° NNW 01:45:14 60° W 01:50:17 10° S
Cosmos 1727 Rocket 4.0 01:41:30 10° S 01:47:45 68° E 01:53:59 10° NNE
Cosmos 1844 Rocket 3.7 01:43:06 10° N 01:48:14 34° NE 01:52:38 13° ESE
NOSS 8 (A) 4.1 01:46:04 10° SSW 01:49:39 70° SE 01:52:38 10° NE
Meteor 2-20 Rocket 4.5 01:44:44 10° S 01:50:46 65° E 01:56:49 10° NNE
Cosmos 1605 Rocket 4.3 01:47:39 10° NNW 01:54:03 71° W 02:00:21 10° S
SPOT 5 3.8 01:50:49 15° SE 01:54:34 37° ENE 01:59:07 10° N
Cosmos 2285 Rocket 4.4 01:51:32 10° SSW 01:57:57 69° WNW 02:04:23 10° NNE
FALCON 9 DEB 3.0 01:55:42 10° SW 01:59:05 62° SE 02:02:28 10° ENE
Cosmos 1953 3.0 01:55:58 10° N 01:59:50 41° ENE 02:02:13 20° SE
Resurs 01 Rocket 2.5 01:56:58 10° S 02:01:11 46° W 02:05:26 10° NNW
Cosmos 2263 Rocket 3.1 01:55:56 10° NW 02:01:18 44° WSW 02:06:40 10° S
Cosmos 1452 Rocket 3.5 01:56:11 10° SSW 02:01:27 87° ESE 02:06:47 10° NNE
Cosmos 1025 Rocket 3.9 02:00:33 19° SE 02:03:00 33° E 02:06:54 10° NNE
CARTOSAT-1 3.7 02:02:17 19° SSE 02:05:15 61° ENE 02:09:31 10° N
Terra 2.9 02:02:47 17° ESE 02:05:41 32° ENE 02:09:54 10° N
USA 245 3.9 02:03:19 16° SSE 02:07:01 90° S 02:12:36 10° NNW
Lacrosse 5 2.1 02:05:22 10° NW 02:10:23 63° SW 02:13:41 21° SSE
In-Cosmos 22 4.1 02:05:50 10° S 02:11:07 84° W 02:16:27 10° N
SPOT 1/Viking Rocket 3.7 02:06:53 14° S 02:11:20 74° WSW 02:16:29 10° NNW
Cosmos 1626 2.8 02:10:37 25° SE 02:12:07 36° E 02:15:32 10° NNE
Cosmos 1850 Rocket 4.0 02:07:59 10° NNW 02:13:19 76° ENE 02:16:49 21° SSE
Cosmos 1975 Rocket 3.0 02:09:40 13° S 02:13:34 84° E 02:17:58 10° N
Cosmos 2333 Rocket 3.0 02:14:47 20° SSE 02:17:44 32° ESE 02:22:46 10° NE
Cosmos 1461 3.5 02:13:42 10° NNW 02:17:47 46° NE 02:19:59 23° ESE
Geosat 4.0 02:15:36 22° SE 02:18:55 79° ENE 02:23:58 10° NNW
Spot 2 Rocket 3.5 02:18:26 19° SSE 02:22:04 84° WSW 02:27:10 10° NNW
Cosmos 1459 Rocket 3.9 02:17:59 10° N 02:24:02 73° E 02:28:08 22° SSE
KORONAS-FOTON 3.8 02:21:34 17° SSW 02:24:27 80° W 02:28:15 10° N
Cosmos 1331 Rocket 4.0 02:22:28 14° S 02:26:59 66° ESE 02:32:14 10° NNE
ERS-1 Rocket 3.0 02:24:37 24° SSE 02:27:42 75° ENE 02:32:45 10° N
Cosmos 1000 Rocket 4.4 02:24:18 14° S 02:29:44 83° E 02:35:54 10° N
SL-8 R/B 4.1 02:27:14 10° WNW 02:31:59 59° NNE 02:35:46 16° E
Cosmos 2219 Rocket 2.8 02:29:35 25° SSE 02:32:03 36° ESE 02:37:10 10° NE
ATLAS CENTAUR R/B 3.0 02:28:22 10° NNW 02:32:09 28° NE 02:34:48 17° E
Cosmos 1844 3.9 02:27:19 10° NNW 02:32:50 60° ENE 02:35:57 26° SE
ARIANE 5 R/B 3.0 02:36:14 23° S 02:38:52 61° W 02:43:18 10° NNW
Meteor 1-24 Rocket 4.5 02:37:25 25° SE 02:39:17 32° E 02:44:03 10° NNE
Cosmos 2061 Rocket 4.2 02:34:35 10° N 02:41:00 63° E 02:44:36 27° SSE
Meteor 2-11 Rocket 4.4 02:35:46 10° N 02:41:55 88° E 02:45:41 25° S
Aureole 1 Rocket 4.1 02:37:24 10° NNW 02:43:21 88° ENE 02:47:54 26° SSE
Cosmos 1674 3.7 02:41:23 14° SSW 02:44:18 43° WNW 02:47:51 10° N
CZ-4B DEB 4.3 02:44:40 50° ESE 02:45:10 59° ENE 02:48:18 10° N
Cosmos 1302 Rocket 4.3 02:43:00 29° SSE 02:45:18 48° ESE 02:50:20 10° NNE
Cosmos 1741 Rocket 4.4 02:40:21 10° NNW 02:45:31 59° WSW 02:48:30 25° S
ATLAS 3B R/B 2.6 02:39:16 10° SSW 02:45:31 58° ESE 02:52:05 10° NE
Cosmos 2237 Rocket 4.0 02:47:42 13° E 02:47:45 13° E 02:50:19 10° ENE
Celestis-02/Orion 38 4.5 02:49:22 32° SSE 02:51:50 85° WSW 02:57:00 10° NNW
Cosmos 2123 Rocket 4.0 02:48:01 23° S 02:52:05 78° E 02:58:25 10° N
SL-16 R/B 4.1 02:47:59 10° WSW 02:52:55 30° NW 02:57:53 10° N
Cosmos 2360 Rocket 2.7 02:48:15 10° SW 02:53:49 61° WNW 02:59:25 10° NNE
Cosmos 1300 3.0 02:50:56 10° N 02:54:39 49° E 02:55:23 42° ESE
Cosmos 2322 Rocket 3.7 02:50:15 10° WSW 02:55:28 36° WNW 03:00:44 10° N
H-2A R/B 3.3 02:53:13 10° NNE 02:57:19 79° E 02:58:45 39° S
Cosmos 1544 Rocket 3.7 02:53:35 10° NNW 02:58:03 69° W 02:59:55 33° S
SL-24 R/B 4.3 02:57:21 10° N 03:02:12 69° E 03:03:58 38° SSE
Cosmos 1455 Rocket 4.3 02:58:49 10° NNW 03:02:53 36° W 03:05:25 20° SW
Cosmos 2233 Rocket 4.2 02:58:03 10° N 03:04:06 56° ENE 03:06:48 32° SE
Cosmos 1346 Rocket 3.8 03:05:41 30° E 03:05:42 30° E 03:09:15 10° NNE
USA 215 3.2 03:01:12 10° NE 03:07:43 66° SE 03:14:12 10° SW
COSMOS 2428 2.8 03:06:54 33° S 03:09:20 59° ESE 03:14:59 10° NNE
Cosmos 1340 3.0 03:10:39 38° SW 03:11:53 61° WNW 03:15:37 10° N
BREEZE-M DEB (TANK) 3.3 03:09:36 10° WNW 03:11:14 29° W 03:11:14 29° W
Cosmos 2322 3.6 03:08:15 22° SSW 03:12:03 89° ESE 03:17:45 10° NNE
Cosmos 405 2.9 03:13:20 10° NNW 03:16:46 69° W 03:17:02 65° SW
Lacrosse 5 rocket 2.0 03:14:22 10° WSW 03:17:55 46° NW 03:21:24 10° NE
Cosmos 2278 Rocket 3.4 03:16:02 10° N 03:21:06 32° NE 03:23:55 21° ESE
Cosmos 2016 Rocket 4.4 03:20:51 10° NNW 03:26:46 54° W 03:29:58 27° SSW
Cosmos 1536 Rocket 4.2 03:26:46 31° SW 03:28:37 53° W 03:33:00 10° N
Cosmos 968 Rocket 3.4 03:26:57 10° NNW 03:32:05 73° ENE 03:33:30 47° SE
Cosmos 1844 Rocket 3.6 03:26:56 10° NW 03:32:08 38° WSW 03:34:17 28° SSW
SPOT 5 4.5 03:30:02 19° SW 03:32:38 28° W 03:36:56 10° NW
Cosmos 1992 Rocket 4.2 03:32:57 47° SE 03:33:55 54° ESE 03:39:01 10° NNE
Meteor 2-5 Rocket 3.9 03:32:04 29° SSW 03:34:52 65° WNW 03:40:26 10° N
USA 267 4.0 03:34:23 11° ESE 03:40:24 50° NNE 03:46:40 10° NW
GEOS 3 Rocket 3.7 03:39:18 39° SE 03:41:19 75° NE 03:46:40 10° NNW
Terra 3.3 03:41:40 22° SW 03:43:24 28° W 03:47:31 10° NW
Cosmos 2228 2.9 03:46:56 10° N 03:51:20 82° W 03:51:51 68° SSW
FALCON 9 DEB 4.2 03:51:56 37° NW 03:52:17 39° NNW 03:55:14 10° NE
FALCON 9 DEB 4.2 03:55:36 40° N 03:55:36 40° N 03:58:01 10° NE
Cosmos 1980 3.8 03:56:10 49° SSE 03:57:11 56° ESE 04:02:45 10° NNE
Okean 1-7 Rocket 4.4 03:58:30 36° E 03:58:31 36° E 04:02:37 10° NNE
FALCON 9 DEB 4.4 04:01:02 33° NW 04:01:28 35° NNW 04:04:23 10° NE
Cosmos 2333 Rocket 3.4 03:56:42 11° SW 04:01:53 39° WNW 04:07:15 10° NNE
DNEPR-1 R/B 4.1 03:59:30 10° NW 04:03:30 44° WSW 04:03:30 44° WSW
BREEZE-M DEB (TANK) 3.0 03:52:55 10° WSW 04:03:43 84° SSE 04:06:59 10° ENE
Iridium 2 3.8 04:07:27 70° NW 04:07:27 70° NW 04:11:00 10° N
ATLAS CENTAUR R/B 2.4 04:07:01 10° NW 04:10:56 37° WSW 04:10:56 37° WSW
SL-8 R/B 4.4 04:09:56 10° WNW 04:13:41 40° WSW 04:13:41 40° WSW
Cosmos 2219 Rocket 3.5 04:11:14 12° WSW 04:15:58 36° WNW 04:21:10 10° N
Cosmos 2058 Rocket 3.0 04:12:41 10° N 04:17:09 72° E 04:17:22 70° ESE
Cosmos 1503 Rocket 4.0 04:13:49 10° NNW 04:19:14 82° ENE 04:20:18 58° SSE
Cosmos 389 Rocket 3.7 04:16:03 10° NNW 04:18:37 33° WNW 04:18:37 33° WNW
Meteor 2-10 Rocket 4.2 04:16:37 10° NNW 04:21:21 41° W 04:22:19 37° WSW
Cosmos 2034 Rocket 4.2 04:15:42 10° N 04:21:48 58° E 04:23:38 42° SE
Cosmos 1455 2.4 04:18:40 10° NNW 04:22:07 65° NW 04:22:07 65° NW
SL-16 R/B 3.1 04:25:54 31° ESE 04:26:13 31° ESE 04:31:08 10° NE
Cosmos 1726 Rocket 3.9 04:22:18 10° NNW 04:26:39 53° W 04:26:54 52° WSW
ATLAS CENTAUR R/B 2.9 04:26:30 53° S 04:27:42 66° SE 04:39:03 10° NE
Meteor 1-4 Rocket 4.1 04:24:38 10° NNE 04:27:14 28° ENE 04:27:14 28° ENE
GP-B 4.3 04:25:14 10° NNE 04:29:11 30° E 04:29:21 30° E
Spot 4 4.3 04:28:51 46° WSW 04:29:22 48° W 04:34:00 10° NNW
Cosmos 2237 Rocket 2.1 04:29:30 51° SSW 04:30:59 84° WNW 04:36:39 10° NNE
NOSS 3-1 (C) 4.3 04:31:32 27° ESE 04:31:32 27° ESE 04:36:03 10° NE
Cosmos 1867 3.6 04:28:47 10° NW 04:34:11 60° WSW 04:34:48 56° SSW
ATLAS 3B R/B 4.1 04:30:40 10° WSW 04:36:34 34° NW 04:42:39 10° NNE
Thor Agena Rocket 3.8 04:32:28 10° NNE 04:37:37 54° E 04:38:12 51° SE
ALOS 2 2.7 04:41:22 60° WSW 04:41:24 60° W 04:45:45 10° NNW
Cosmos 1892 Rocket 4.3 04:40:55 40° W 04:41:28 42° WNW 04:45:41 10° N
Tsikada Rocket 4.1 04:43:11 48° SSE 04:44:45 63° E 04:50:51 10° NNE
SJ 16-02 2.9 04:42:56 10° N 04:46:42 27° ENE 04:47:52 24° E
Meteor 1-21 Rocket 4.3 04:46:49 50° SW 04:48:11 69° WNW 04:53:52 10° N
Cosmos 1184 Rocket 4.5 04:49:34 30° NW 04:49:34 30° NW 04:51:51 10° N
USA 215 4.3 04:44:23 10° NE 04:50:32 45° NNW 04:56:40 10° W
SL-4 R/B 2.3 04:52:00 59° NNE 04:52:00 59° NNE 04:55:11 10° NE
Lacrosse 5 rocket 4.3 04:56:14 10° NW 04:57:46 12° NNW 04:59:19 10° N
Meteor 1-11 4.3 04:59:16 53° SE 05:00:19 64° E 05:05:51 10° NNE
Cosmos 2297 4.3 04:57:52 10° NNW 05:03:22 51° ENE 05:05:43 31° ESE
Cosmos 2278 Rocket 2.8 05:00:00 10° NW 05:05:14 40° WSW 05:05:45 39° WSW
Cosmos 1777 Rocket 3.9 05:04:52 10° NNW 05:10:11 86° WSW 05:11:01 64° SSE
Cosmos 1626 Rocket 3.8 05:11:52 58° W 05:12:05 59° W 05:16:30 10° N
PSLV R/B 3.4 05:09:55 10° NNE 05:14:15 82° ESE 05:14:21 81° SE
Cosmos 1892 3.8 05:18:18 35° E 05:18:18 35° E 05:21:36 10° NNE
Cosmos 1602 Rocket 3.6 05:18:27 70° WSW 05:18:38 71° W 05:23:08 10° N
NOSS 2-3 (D) 4.2 05:21:22 42° E 05:21:22 42° E 05:25:11 10° NE
USA 267 3.3 05:21:42 46° S 05:23:20 58° SW 05:29:47 10° NW
Helios 1A 4.4 05:22:47 26° E 05:23:54 30° ENE 05:27:36 10° N
Cosmos 1758 Rocket 3.4 05:25:43 79° SE 05:25:53 82° E 05:30:20 10° N
EO 1 Del DPAF 3.3 05:33:40 10° N 05:37:03 70° NNW 05:37:03 70° NNW
NOSS 2-3 (C) 3.4 05:37:48 70° ESE 05:37:48 70° ESE 05:42:19 10° NE
Aureole 3 3.4 05:34:10 10° NNW 05:37:46 73° W 05:37:46 73° W
Cosmos 1356 4.5 05:39:49 39° ENE 05:39:49 39° ENE 05:42:27 10° NNE
SL-24 R/B 4.5 05:40:29 58° SSW 05:41:23 72° W 05:47:10 10° NNW
Cosmos 1943 4.3 05:41:25 28° SE 05:42:43 31° ESE 05:47:38 10° NE
Cosmos 1634 Rocket 4.0 05:37:35 10° NNW 05:43:53 72° W 05:45:48 46° SSW
Cosmos 2279 Rocket 4.0 05:39:07 10° N 05:45:23 75° E 05:47:46 40° SSE
Cosmos-2242 2.9 05:43:45 10° NNW 05:48:09 74° W 05:48:21 72° WSW
Cosmos 1943 Rocket 2.0 05:43:00 10° NNW 05:48:33 89° ENE 05:50:14 47° SSE
Cosmos 405 Rocket 3.4 05:48:53 41° E 05:48:53 41° E 05:52:14 10° NNE
Cosmos 1825 2.9 05:52:57 42° E 05:52:59 42° E 05:56:34 10° NNE
YAOGAN 11 4.1 05:54:06 59° SE 05:54:51 77° ENE 05:59:20 10° N
Resurs 1-4 Rocket 3.0 05:54:33 10° NNE 05:59:32 39° E 06:01:20 30° SE
Exosat Rocket 4.0 06:01:44 40° S 06:04:20 75° ESE 06:09:50 10° NNE
CZ-2D R/B 2.7 06:03:45 10° NNE 06:08:45 45° E 06:10:33 33° SSE
SL-16 R/B 3.1 06:07:45 27° WSW 06:10:10 40° WNW 06:15:30 10° NNE
USA 229 DEB 3.5 06:08:35 40° SW 06:11:08 89° WNW 06:17:57 10° NE
USA 229 3.5 06:08:42 40° SW 06:11:14 90° WNW 06:18:04 10° NE
MOZ.5/SAFIR/RUBIN 5/SL-8 3.7 06:13:18 49° SSE 06:14:36 88° E 06:19:23 10° NNW
ADEOS II 3.7 06:12:22 10° NE 06:16:43 26° E 06:19:31 17° SE
Cosmos 2221 3.2 06:13:13 10° N 06:17:25 50° ENE 06:18:55 34° SE
Cosmos 468 Rocket 3.9 06:16:01 50° SSW 06:17:26 85° WNW 06:22:39 10° NNE
Nadezhda 4 Rocket 4.0 06:17:10 35° S 06:19:51 72° E 06:25:58 10° NNE
Cosmos 1408 3.2 06:20:25 43° WNW 06:20:25 43° WNW 06:23:52 10° N
X-37B 1.1 06:21:11 57° NE 06:21:11 57° NE 06:23:53 10° ENE
ARGOS Delta rocket 4.3 06:15:24 10° NNE 06:20:52 66° E 06:23:00 37° SSE
NOSS 3-1 (C) 3.9 06:18:54 27° WSW 06:21:36 49° NW 06:27:40 10° NNE
Cosmos 2098 Rocket 3.9 06:20:30 34° SSE 06:22:59 64° E 06:27:52 10° NNE
SJ 16-02 2.5 06:21:29 10° NW 06:24:49 27° W 06:24:49 27° W
Cosmos 2369 Rocket 2.1 06:22:33 10° NNW 06:28:19 85° WSW 06:31:22 29° SSE
Cosmos 1869 4.2 06:25:56 10° NNW 06:29:41 35° W 06:29:41 35° W
SL-16 R/B 2.6 06:26:24 22° SSE 06:30:35 75° ENE 06:36:47 10° NNW
NOSS 3-1 (A) 3.3 06:28:32 36° SW 06:30:47 70° NW 06:37:00 10° NNE
SL-4 R/B 4.0 06:28:24 10° WNW 06:31:29 23° NNW 06:34:25 10° NE
Cosmos 1606 3.6 06:30:44 10° N 06:34:25 44° ENE 06:35:59 28° SE
Cosmos 1656 Rocket 3.9 06:29:05 10° NNW 06:34:47 70° ENE 06:39:36 14° SSE
Cosmos 2263 4.2 06:29:48 10° NNW 06:35:31 81° ENE 06:39:38 19° SSE
Cosmos 1437 Rocket 2.6 06:33:05 10° NNW 06:37:00 83° W 06:37:37 61° S
Cosmos 1763 Rocket 3.7 06:35:28 38° SW 06:37:10 58° WNW 06:42:14 10° NNE
CREW DRAGON DEMO-1 DEB 4.1 06:38:11 32° N 06:38:11 32° N 06:39:56 10° NE
OE (NEXTSAT) 4.1 06:39:19 83° SSW 06:39:23 85° SSE 06:42:50 10° ENE
Cosmos 1242 Rocket 3.1 06:36:11 10° N 06:39:42 53° ENE 06:40:52 35° SE
Cosmos 2058 2.9 06:40:52 51° SW 06:41:38 63° W 06:45:42 10° N
USA 290 3.9 06:42:13 22° ESE 06:42:44 23° ESE 06:45:22 10° NE
ATLAS 5 CENTAUR R/B 2.5 06:48:01 27° SE 06:49:00 30° ESE 06:52:43 10° NE
Cosmos 1932 4.4 06:43:22 10° NNW 06:49:37 87° ENE 06:55:49 10° SSE
DELTA 2 R/B (1) 3.8 06:48:29 36° SSW 06:50:09 47° SSE 06:55:27 10° E
Aureole 3 Rocket 3.3 06:49:27 10° N 06:53:13 70° E 06:56:17 22° SSE
Cosmos 1437 3.6 06:51:38 10° N 06:54:17 38° ENE 06:55:00 31° ESE
ADEOS Rocket 3.7 06:49:04 10° SSE 06:56:27 68° ENE 07:03:12 10° N
Cosmos 1092 Rocket 3.9 06:54:17 27° S 06:57:52 84° E 07:04:02 10° N
Helios 1A 4.3 06:59:24 23° W 06:59:28 23° W 07:02:49 10° NW
USA 307 3.6 06:58:46 33° S 06:59:51 40° SE 07:03:50 10° ENE
Cosmos 1633 2.4 07:03:06 47° S 07:04:02 88° E 07:07:34 10° N
Landsat 4 4.1 07:00:43 10° NNE 07:04:28 58° ESE 07:06:02 31° SSE
Helios 1B rocket 2.5 07:00:40 10° N 07:04:43 64° WNW 07:06:09 37° SW
IRS-1D 3.9 07:03:56 10° NNE 07:09:02 58° E 07:12:21 21° S
Cosmos 1842 Rocket 4.0 07:05:01 10° NNW 07:09:08 44° W 07:10:27 33° SW
USA 308 3.2 07:13:55 33° SSW 07:15:32 54° SE 07:19:41 10° ENE
Cosmos 1428 Rocket 4.5 07:13:11 22° S 07:17:26 86° W 07:23:47 10° N
NOSS 2-2 (D) 3.0 07:17:58 37° SSW 07:19:08 70° SE 07:22:42 10° NE
Cosmos 841 Rocket 3.9 07:19:57 25° SW 07:22:40 49° WNW 07:27:40 10° N
UNK 4.3 07:21:01 28° SW 07:22:44 38° W 07:27:03 10° NNW
Cosmos 1782 4.4 07:19:57 10° N 07:23:36 33° ENE 07:27:15 10° SE
Cosmos 540 Rocket 4.2 07:22:33 22° WSW 07:25:15 39° WNW 07:30:04 10° N
Cosmos 1898 Rocket 4.5 07:21:13 10° NW 07:25:37 28° W 07:27:17 23° SW
CZ-4C R/B 4.3 07:22:35 10° SE 07:25:51 39° ENE 07:29:06 10° N
Cosmos 921 Rocket 3.4 07:24:19 28° SW 07:26:13 48° WNW 07:30:18 10° N
Cosmos 1943 4.0 07:23:13 20° WSW 07:26:37 39° WNW 07:31:54 10° N
Cosmos 1825 4.4 07:27:43 12° W 07:28:41 13° WNW 07:30:30 10° NW
Lacrosse 4 Rocket 2.0 07:25:25 10° NNW 07:29:27 55° ENE 07:33:24 10° SE
MINOTAUR 4 R/B 4.3 07:28:56 30° SSW 07:30:19 49° W 07:33:46 10° NNW
Cosmos 1937 Rocket 4.2 07:25:30 10° NW 07:30:20 36° WSW 07:33:00 22° SSW
Cosmos 1943 Rocket 4.0 07:29:27 10° WNW 07:31:25 12° W 07:31:43 12° W
SL-19 R/B 4.5 07:27:24 10° N 07:32:29 53° WNW 07:35:55 21° SW
NPP 4.4 07:29:12 10° N 07:34:12 40° WNW 07:37:30 20° SW
USA 305 2.8 07:32:36 26° SW 07:34:58 84° SE 07:39:14 10° NE
Resurs 1-4 Rocket 3.3 07:34:41 10° N 07:39:10 29° WNW 07:42:25 16° WSW
Cosmos 1933 3.3 07:37:01 10° N 07:41:08 81° W 07:44:43 13° S
Cosmos 1271 Rocket 4.3 07:41:50 10° N 07:45:17 34° ENE 07:48:44 10° SE
IRIDIUM 104 4.3 07:41:47 10° N 07:47:02 86° W 07:52:14 10° S
Cosmos 2150 Rocket 4.2 07:42:23 10° NNW 07:47:35 74° ENE 07:52:49 10° SSE
Cosmos 2151 3.4 07:45:23 21° SW 07:47:50 45° WNW 07:51:54 10° N
CZ-2D R/B 3.5 07:44:24 10° NNW 07:48:31 24° WNW 07:51:52 13° WSW
Cosmos 1809 Rocket 4.5 07:43:31 13° S 07:49:02 86° W 07:55:16 10° N
Cosmos 2221 4.4 07:52:20 10° NW 07:54:28 14° W 07:55:44 12° WSW
Meteor 1-29 4.3 07:52:30 10° NNW 07:55:23 26° WNW 07:57:08 17° WSW
Cosmos 1553 Rocket 4.0 07:49:08 10° N 07:55:27 78° W 08:01:38 10° S
IRIDIUM 114 4.3 07:50:58 10° N 07:56:10 71° W 08:01:21 10° S
ADEOS II 2.7 07:51:36 10° N 07:56:32 42° WNW 08:00:27 15° SW
USA 306 3.1 07:53:56 17° WSW 07:57:09 68° NW 08:01:23 10° NE
X-37B 1.2 07:54:25 10° WNW 07:57:33 56° N 08:00:41 10° E
NOSS 2-2 (E) 4.2 07:56:16 15° WSW 07:58:39 32° NW 08:02:05 10° NNE
ERBS 3.8 07:56:45 13° S 07:58:56 26° SE 08:01:41 10° ENE
S3M 4.1 07:53:42 10° N 07:59:52 78° E 08:06:05 10° SSE
CZ-2C R/B 4.1 07:56:30 10° NE 08:00:51 29° E 08:05:02 10° SSE
Cosmos 1125 Rocket 3.6 07:58:31 10° NNW 08:03:48 83° ENE 08:09:04 10° SSE
IRIDIUM 103 4.5 08:00:11 10° N 08:05:18 58° W 08:10:24 10° SSW
SeaSat 1 2.5 08:00:55 10° NNE 08:05:51 73° WNW 08:10:13 13° SW
ARIANE 5 R/B 2.7 08:03:05 10° NNE 08:08:05 73° ESE 08:13:04 10° S
Cosmos 2369 Rocket 4.1 08:09:38 10° WNW 08:11:23 11° W 08:13:05 10° WSW
NOSS 2-2 (C) 4.3 08:08:55 12° WSW 08:11:38 31° NW 08:15:00 10° NNE
SL-4 R/B 4.2 08:09:06 10° NW 08:11:54 21° N 08:14:37 10° ENE
SL-08 R/B 3.5 08:08:13 10° SSE 08:12:50 75° ENE 08:17:34 10° N
Cosmos 1328 Rocket 3.6 08:09:07 10° N 08:13:30 88° E 08:17:51 10° S
SL-16 R/B 4.0 08:11:30 12° SW 08:14:47 18° W 08:18:46 10° NW
Cosmos 1862 3.8 08:11:19 10° S 08:15:17 62° E 08:19:18 10° NNE
IDEFIX/ARIANE 42P 2.9 08:10:53 10° N 08:15:58 51° WNW 08:20:56 10° SW
USA 290 4.2 08:15:00 11° WSW 08:17:07 17° WNW 08:19:22 10° NNW
Lacrosse 5 rocket 4.1 08:16:04 10° NNW 08:18:44 19° NNE 08:21:27 10° ENE
Meteor 2-21 Rocket 4.5 08:14:42 10° SSW 08:20:49 76° W 08:27:01 10° N
IRS-1C 4.2 08:16:10 10° N 08:21:29 69° WNW 08:26:46 10° SSW
USA 281 3.4 08:15:10 10° S 08:21:33 54° WSW 08:27:59 10° NNW
CZ-4B R/B 3.6 08:17:29 10° NNE 08:22:48 86° WNW 08:28:01 10° SSW
CZ-4C R/B 2.7 08:20:12 10° S 08:24:43 47° ESE 08:30:04 10° NE
GPS 2-04 Rocket1 3.7 08:23:33 11° SW 08:26:40 27° S 08:29:54 10° ESE
FALCON 9 DEB 3.0 08:25:35 10° WNW 08:28:59 75° SW 08:32:21 10° SE
ATLAS 5 CENTAUR R/B 2.9 08:30:04 10° WSW 08:33:33 28° NW 08:37:25 10° NNE
DELTA 2 R/B (1) 3.6 08:30:47 10° W 08:36:17 65° S 08:41:47 10° E
USA 307 3.9 08:35:50 10° W 08:39:50 39° NNW 08:43:50 10° NE
Cosmos 1766 Rocket 4.4 08:35:48 10° SW 08:39:52 35° WNW 08:43:59 10° N
Spot 4 Rocket 4.1 08:35:28 10° NNE 08:40:38 87° ESE 08:45:47 10° SSW
Cosmos 1515 Rocket 3.6 08:36:48 10° N 08:41:14 84° W 08:45:40 10° S
FALCON 9 DEB 4.4 08:38:25 10° NW 08:41:22 41° NNE 08:44:18 10° ESE
Okean 3 Rocket 4.4 08:37:21 10° SW 08:41:22 34° WNW 08:45:23 10° N
Cosmos 883 Rocket 4.5 08:35:21 10° N 08:41:31 79° W 08:47:36 10° S
Cosmos 1833 Rocket 3.6 08:36:11 10° S 08:41:33 47° ESE 08:46:56 10° NE
ADEOS Rocket 4.5 08:36:31 10° SW 08:42:16 24° W 08:47:42 10° NW
Cosmos 2266 Rocket 4.1 08:36:13 10° SSW 08:42:17 61° W 08:48:18 10° N
Cosmos 1408 Rocket 3.7 08:40:44 10° SSW 08:45:07 61° W 08:49:33 10° N
Cosmos 1151 Rocket 3.9 08:41:57 10° NNW 08:45:42 30° W 08:49:25 10° SSW
